FW2126 Weather Reports


Display with metric or nautical units.
time (UTC)temp
F
wind
direction
speed
MPH
gust
MPH
rain 1hr
in
rain 24hr
in
rain mn
in
humidity
%
barometer
mb
20260510131535 53 30 15.0 29.0 0.00 0.00 0.00 73 1016.4
20260510130034 53 32 22.0 32.0 0.00 0.00 0.00 74 1016.1
20260510124530 53 56 20.0 28.0 0.00 0.00 0.00 74 1015.4
20260510123031 53 36 15.0 28.0 0.00 0.00 0.00 75 1015.1
20260510121525 53 15 15.0 24.0 0.00 0.00 0.00 77 1014.5
20260510120026 53 9 15.0 24.0 0.00 0.00 0.00 79 1014.3
20260510114523 53 15 12.0 23.0 0.00 0.00 0.00 81 1014.0
20260510113115 54 15 15.0 23.0 0.00 0.00 0.00 81 1013.3
20260510111513 54 360 15.0 25.0 0.00 0.00 0.00 80 1013.0
20260510110011 55 360 15.0 20.0 0.00 0.00 0.00 79 1012.5
20260510104509 55 17 18.0 24.0 0.00 0.00 0.00 79 1012.2
20260510103006 56 360 12.0 19.0 0.00 0.00 0.00 79 1012.5
20260510101501 56 15 14.0 20.0 0.00 0.00 0.00 78 1013.0
20260510100101 57 15 13.0 23.0 0.00 0.00 0.00 77 1013.2
20260510094556 57 17 17.0 23.0 0.00 0.00 0.00 76 1013.1
20260510093054 57 15 14.0 23.0 0.00 0.00 0.00 76 1012.7
20260510091557 57 14 15.0 25.0 0.00 0.00 0.00 76 1012.2
20260510090050 57 13 19.0 28.0 0.00 0.00 0.00 75 1011.3
20260510084544 57 14 12.0 19.0 0.00 0.00 0.00 71 1010.4
20260510083042 57 14 13.0 22.0 0.00 0.00 0.00 69 1010.0
20260510081544 58 15 12.0 23.0 0.00 0.00 0.00 68 1009.8
20260510080037 58 15 16.0 21.0 0.00 0.00 0.00 67 1009.8
20260510074535 58 15 15.0 22.0 0.00 0.00 0.00 67 1010.0
20260510073034 57 18 9.0 14.0 0.00 0.00 0.00 65 1009.1
20260510071529 58 360 9.0 12.0 0.00 0.00 0.00 62 1008.2
20260510070025 59 360 6.0 9.0 0.00 0.00 0.00 59 1008.1
20260510064520 60 17 6.0 10.0 0.00 0.00 0.00 57 1008.8
20260510063023 61 11 4.0 7.0 0.00 0.00 0.00 56 1008.9
20260510061517 62 61 5.0 11.0 0.00 0.00 0.00 54 1009.2
20260510060018 63 11 9.0 15.0 0.00 0.00 0.00 52 1009.0
20260510054507 64 10 12.0 19.0 0.00 0.00 0.00 48 1008.9
20260510053002 66 9 14.0 20.0 0.00 0.00 0.00 45 1009.0
20260510051600 67 10 13.0 18.0 0.00 0.00 0.00 42 1009.2
20260510050056 68 9 15.0 20.0 0.00 0.00 0.00 41 1009.5
20260510044554 69 9 9.0 14.0 0.00 0.00 0.00 40 1009.2
20260510043107 72 10 10.0 18.0 0.00 0.00 0.00 37 1008.7
20260510041556 73 5 13.0 20.0 0.00 0.00 0.00 35 1008.4
20260510040059 75 9 14.0 19.0 0.00 0.00 0.00 33 1007.7
20260510034553 75 10 3.0 6.0 0.00 0.00 0.00 30 1007.5
20260510033053 80 18 3.0 14.0 0.00 0.00 0.00 23 1007.1
20260510031556 74 360 3.0 12.0 0.00 0.00 0.00 31 1006.9
20260510030051 73 20 4.0 6.0 0.00 0.00 0.00 35 1006.5
20260510024550 73 10 3.0 8.0 0.00 0.00 0.00 34 1005.6
20260510023050 75 10 6.0 9.0 0.00 0.00 0.00 32 1005.0
20260510021550 76 9 5.0 10.0 0.00 0.00 0.00 31 1005.2
20260510020050 76 10 10.0 14.0 0.00 0.00 0.00 29 1005.0
20260510014547 76 9 10.0 16.0 0.00 0.00 0.00 32 1004.7
20260510013047 76 20 3.0 6.0 0.00 0.00 0.00 34 1004.7
20260510011547 78 9 3.0 5.0 0.00 0.00 0.00 32 1004.4
20260510010046 79 11 4.0 7.0 0.00 0.00 0.00 31 1004.3
20260510004545 80 11 5.0 9.0 0.00 0.00 0.00 30 1004.2
20260510003048 81 11 10.0 13.0 0.00 0.00 0.00 28 1004.1
20260510001549 83 11 8.0 14.0 0.00 0.00 0.00 26 1003.7
20260510000044 84 60 11.0 16.0 0.00 0.00 0.00 23 1003.9
20260509234542 87 69 14.0 18.0 0.00 0.00 0.00 22 1003.8
20260509233039 85 24 4.0 9.0 0.00 0.00 0.00 20 1003.7
20260509231539 86 360 4.0 14.0 0.00 0.00 0.00 19 1003.8
20260509230037 85 5 9.0 26.0 0.00 0.00 0.00 19 1003.6
20260509224542 85 306 11.0 16.0 0.00 0.00 0.00 22 1004.1
20260509223037 84 18 5.0 10.0 0.00 0.00 0.00 22 1004.3
20260509221535 83 16 11.0 30.0 0.00 0.00 0.00 22 1004.2
20260509220031 85 306 7.0 14.0 0.00 0.00 0.00 21 1004.2
20260509214527 86 259 6.0 9.0 0.00 0.00 0.00 21 1004.1
20260509213025 86 213 8.0 11.0 0.00 0.00 0.00 21 1004.4
20260509211523 86 202 7.0 13.0 0.00 0.00 0.00 22 1004.7
20260509210029 85 298 3.0 13.0 0.00 0.00 0.00 23 1004.9
20260509204518 84 190 7.0 12.0 0.00 0.00 0.00 24 1005.2
20260509203018 84 252 10.0 16.0 0.00 0.00 0.00 24 1005.4
20260509201512 83 290 2.0 15.0 0.00 0.00 0.00 25 1005.8
20260509200010 83 288 8.0 11.0 0.00 0.00 0.00 26 1005.9
20260509194508 83 134 2.0 11.0 0.00 0.00 0.00 27 1005.9
20260509193010 82 219 8.0 19.0 0.00 0.00 0.00 29 1006.2
20260509191502 81 218 9.0 20.0 0.00 0.00 0.00 30 1006.4
20260509190109 81 142 4.0 17.0 0.00 0.00 0.00 31 1006.6
20260509184558 81 208 10.0 20.0 0.00 0.00 0.00 31 1006.8
20260509183056 79 232 9.0 21.0 0.00 0.00 0.00 32 1007.2
20260509181558 79 279 7.0 25.0 0.00 0.00 0.00 33 1007.5
20260509180058 78 276 7.0 19.0 0.00 0.00 0.00 34 1007.7
20260509174549 77 215 14.0 22.0 0.00 0.00 0.00 35 1008.0
20260509173049 78 237 12.0 21.0 0.00 0.00 0.00 33 1008.1
20260509171547 77 253 17.0 22.0 0.00 0.00 0.00 33 1008.3
20260509170043 77 195 13.0 22.0 0.00 0.00 0.00 32 1008.5
20260509164547 76 213 8.0 16.0 0.00 0.00 0.00 34 1008.6
20260509163038 76 18 13.0 20.0 0.00 0.00 0.00 35 1009.0
20260509161536 75 17 9.0 21.0 0.00 0.00 0.00 37 1009.1
20260509160030 74 17 13.0 20.0 0.00 0.00 0.00 38 1009.3
20260509154526 72 19 12.0 19.0 0.00 0.00 0.00 42 1009.4
20260509153023 71 18 16.0 21.0 0.00 0.00 0.00 43 1009.6
20260509151520 69 17 13.0 20.0 0.00 0.00 0.00 50 1009.7
20260509150025 68 360 12.0 18.0 0.00 0.00 0.00 54 1009.8
20260509144511 65 360 12.0 17.0 0.00 0.00 0.00 57 1009.7
20260509143009 64 360 13.0 19.0 0.00 0.00 0.00 58 1010.0
20260509141508 62 360 8.0 11.0 0.00 0.00 0.00 57 1010.5
20260509140105 60 360 7.0 11.0 0.00 0.00 0.00 60 1010.7
20260509134627 59 360 9.0 12.0 0.00 0.00 0.00 62 1010.8
20260509133058 56 360 5.0 9.0 0.00 0.00 0.00 68 1011.0